Location: Newark
(7.1028°S, 35.3258°W)
Time: 11:31:59
(UTC+00:00)

Tiros 1 - All Passes

Search period start: 19 February 2020 00:00
Search period end: 29 February 2020 00:00
Orbit: 631 x 664 km, 48.4° (Epoch: 18 February)

Date Brightness Start Highest point End Pass type
(mag) Time Alt. Az. Time Alt. Az. Time Alt. Az.
19 Feb - 01:06:30 10° S 01:10:08 22° SE 01:13:44 10° E night (unlit)
19 Feb - 02:48:03 10° WSW 02:52:12 30° NW 02:56:18 10° N night (unlit)
19 Feb - 13:24:31 10° NNE 13:26:12 12° NE 13:27:53 10° ENE daylight
19 Feb - 15:03:33 10° NW 15:08:09 55° SW 15:12:50 10° SSE daylight
20 Feb - 01:31:29 10° SSW 01:36:13 69° SE 01:40:52 10° NE night (unlit)
20 Feb - 13:47:48 10° NNW 13:52:08 38° NE 13:56:33 10° ESE daylight
20 Feb - 15:31:04 10° W 15:34:16 18° SW 15:37:29 10° S daylight
21 Feb - 00:16:38 10° S 00:20:04 19° SE 00:23:27 10° E night (unlit)
21 Feb - 01:57:51 10° WSW 02:02:10 35° NW 02:06:25 10° NNE night (unlit)
21 Feb - 12:35:46 10° NE 12:36:09 10° NE 12:36:32 10° ENE daylight
21 Feb - 14:13:27 10° NW 14:18:05 62° SW 14:22:48 10° SSE daylight
22 Feb - 00:41:27 10° SSW 00:46:10 60° SE 00:50:48 10° NE night (unlit)
22 Feb - 02:27:08 10° WNW 02:28:06 11° NW 02:29:03 10° NW night (unlit)
22 Feb - 12:57:53 10° NNW 13:02:06 33° NE 13:06:21 10° ESE daylight
22 Feb - 14:40:45 10° W 14:44:11 20° SW 14:47:39 10° S daylight
22 Feb - 23:26:49 10° S 23:29:58 17° SE 23:33:06 10° E visible
23 Feb - 01:07:40 10° WSW 01:12:07 39° NW 01:16:30 10° NNE night (unlit)
23 Feb - 13:23:23 10° NW 13:28:02 71° SW 13:32:46 10° SSE daylight
23 Feb - 23:51:26 10° SSW 23:56:06 53° SE 00:00:42 10° NE visible
24 Feb - 01:36:10 10° WNW 01:38:03 12° NW 01:39:56 10° NNW night (unlit)
24 Feb - 12:08:00 10° N 12:12:03 29° NE 12:16:09 10° ESE daylight
24 Feb - 13:50:28 10° W 13:54:06 22° SW 13:57:48 10° S daylight
24 Feb - 22:37:02 10° S 22:39:54 16° SE 22:42:43 10° E visible
25 Feb - 00:17:30 10° SW 00:22:04 45° NW 00:26:34 10° NNE night (unlit)
25 Feb - 12:33:19 10° NW 12:37:59 81° SW 12:42:43 10° SE daylight
25 Feb - 23:01:25 10° SSW 23:06:02 46° SE 23:10:35 10° ENE visible
26 Feb - 00:45:31 10° W 00:48:00 14° NW 00:50:27 10° NNW night (unlit)
26 Feb - 11:18:08 10° N 11:22:00 26° NE 11:25:55 10° ESE daylight
26 Feb - 13:00:13 10° WNW 13:04:02 25° SW 13:07:55 10° S daylight
26 Feb - 21:47:20 10° SSE 21:49:49 14° SE 21:52:16 10° ESE visible
26 Feb - 23:27:21 10° SW 23:32:00 51° NW 23:36:36 10° NNE visible
27 Feb - 11:43:17 10° NW 11:47:56 89° NE 11:52:39 10° SE daylight
27 Feb - 22:11:26 10° SSW 22:15:58 41° SE 22:20:27 10° ENE visible
27 Feb - 23:55:02 10° W 23:57:56 16° NW 00:00:49 10° NNW visible
28 Feb - 10:28:18 10° N 10:31:58 23° NE 10:35:39 10° ESE daylight
28 Feb - 12:10:00 10° WNW 12:13:58 27° SW 12:18:00 10° S daylight
28 Feb - 20:57:43 10° SSE 20:59:43 12° SE 21:01:41 10° ESE visible
28 Feb - 22:37:14 10° SW 22:41:57 59° NW 22:46:37 10° NNE visible
